TimeEST,TemperatureF,Dew PointF,Humidity,Sea Level PressureIn,VisibilityMPH,Wind Direction,Wind SpeedMPH,Gust SpeedMPH,PrecipitationIn,Events,Conditions,WindDirDegrees,DateUTC
12:56 AM,53.1,50.0,89,30.06,8.0,SW,8.1,-,N/A,,Scattered Clouds,230,2012-12-09 05:56:00
1:56 AM,54.0,51.1,90,30.06,9.0,SW,6.9,-,N/A,,Scattered Clouds,230,2012-12-09 06:56:00
2:56 AM,52.0,50.0,93,30.07,7.0,SW,6.9,-,N/A,,Scattered Clouds,230,2012-12-09 07:56:00
3:56 AM,51.1,48.9,92,30.07,7.0,SW,6.9,-,N/A,,Scattered Clouds,230,2012-12-09 08:56:00
4:56 AM,52.0,50.0,93,30.08,7.0,SW,5.8,-,N/A,,Mostly Cloudy,220,2012-12-09 09:56:00
5:56 AM,53.1,51.1,93,30.10,6.0,South,3.5,-,N/A,,Mostly Cloudy,180,2012-12-09 10:56:00
6:56 AM,54.0,51.1,90,30.11,6.0,SSW,3.5,-,N/A,,Mostly Cloudy,200,2012-12-09 11:56:00
7:51 AM,53.6,51.8,94,30.12,4.0,Calm,Calm,-,0.00,Rain,Light Rain,0,2012-12-09 12:51:00
7:56 AM,53.1,51.1,93,30.12,4.0,Calm,Calm,-,0.00,Rain,Light Rain,0,2012-12-09 12:56:00
8:01 AM,53.6,51.8,94,30.11,5.0,Calm,Calm,-,0.00,,Mostly Cloudy,0,2012-12-09 13:01:00
8:43 AM,55.4,53.6,94,30.15,5.0,SW,9.2,-,0.00,Rain,Light Rain,230,2012-12-09 13:43:00
8:56 AM,55.0,53.1,93,30.14,3.0,SW,4.6,-,0.03,Rain,Rain,220,2012-12-09 13:56:00
9:22 AM,55.4,53.6,94,30.15,6.0,SW,6.9,-,0.01,,Mostly Cloudy,220,2012-12-09 14:22:00
9:56 AM,57.9,55.0,90,30.15,6.0,WSW,3.5,-,0.01,,Mostly Cloudy,240,2012-12-09 14:56:00
10:56 AM,60.1,55.9,86,30.14,7.0,SSW,5.8,-,N/A,,Scattered Clouds,210,2012-12-09 15:56:00
11:56 AM,64.0,57.9,80,30.11,10.0,SSW,4.6,-,N/A,,Mostly Cloudy,210,2012-12-09 16:56:00
12:56 PM,66.0,59.0,78,30.09,10.0,SSW,4.6,-,N/A,,Mostly Cloudy,210,2012-12-09 17:56:00
1:56 PM,68.0,59.0,73,30.09,10.0,South,9.2,-,N/A,,Mostly Cloudy,190,2012-12-09 18:56:00
2:56 PM,66.9,57.9,73,30.08,10.0,SSW,8.1,-,N/A,,Mostly Cloudy,200,2012-12-09 19:56:00
3:56 PM,66.9,57.0,70,30.09,10.0,South,5.8,-,N/A,,Mostly Cloudy,190,2012-12-09 20:56:00
4:56 PM,63.0,57.0,81,30.09,10.0,SSE,5.8,-,N/A,,Mostly Cloudy,160,2012-12-09 21:56:00
5:56 PM,62.1,55.9,80,30.09,10.0,SSE,5.8,-,N/A,,Mostly Cloudy,160,2012-12-09 22:56:00
6:56 PM,62.1,55.0,78,30.09,10.0,SSE,5.8,-,N/A,,Mostly Cloudy,160,2012-12-09 23:56:00
7:56 PM,61.0,54.0,78,30.08,10.0,South,5.8,-,N/A,,Mostly Cloudy,170,2012-12-10 00:56:00
8:56 PM,62.1,54.0,75,30.06,10.0,South,8.1,-,N/A,,Mostly Cloudy,170,2012-12-10 01:56:00
9:56 PM,62.1,54.0,75,30.05,10.0,South,6.9,-,N/A,,Mostly Cloudy,180,2012-12-10 02:56:00
10:56 PM,63.0,57.0,81,30.04,10.0,South,8.1,-,N/A,,Mostly Cloudy,180,2012-12-10 03:56:00
11:56 PM,64.0,59.0,84,30.02,10.0,South,9.2,-,N/A,,Mostly Cloudy,180,2012-12-10 04:56:00